Phenix City, Alabama, United States (36867)
Lat: 32.47N, Lon: 85W
Wx Zone: ALZ048
Local Info
Past Weather Observations for Today

NOTE: This archive is for the closest National Weather Service station to Phenix City. Information may differ from the station used for current weather conditions.

Click here for Long-term Archive

Time Weather Temperature Dewpoint Humidity Pressure Winds Precip Visibility
18:51
Overcast
39°F / 4°C 32°F / 0°C 75% 30.24 in
(1024 mb)
N 17.3 mph
(N 28 kph)
- 10SM
17:51
Overcast
43°F / 6°C 36°F / 2°C 76% 30.18 in
(1022 mb)
NNW 11.5 mph
(NNW 19 kph)
- 10SM
16:51
Overcast
46°F / 8°C 39°F / 4°C 76% 30.15 in
(1021 mb)
NNW 19.6 mph
(NNW 32 kph)
- 10SM
15:51
Overcast
48°F / 9°C 39°F / 4°C 71% 30.12 in
(1020 mb)
NNW 16.1 mph
(NNW 26 kph)
- 10SM
14:51
Overcast
54°F / 12°C 45°F / 7°C 72% 30.09 in
(1019 mb)
NNW 16.1 mph
(NNW 26 kph)
- 10SM
14:24
Mostly Cloudy
55°F / 13°C 46°F / 8°C 72% 30.06 in
(1018 mb)
NW 17.3 mph
(NW 28 kph)
- 10SM
13:51
Partly Cloudy
55°F / 13°C 46°F / 8°C 72% 30.04 in
(1017 mb)
NW 10.4 mph
(NW 17 kph)
- 10SM
12:56
Overcast
52°F / 11°C 46°F / 8°C 82% 30.06 in
(1018 mb)
NNW 6.9 mph
(NNW 11 kph)
- 10SM
12:51
Overcast
52°F / 11°C 45°F / 7°C 77% 30.06 in
(1018 mb)
NNW 8.1 mph
(NNW 13 kph)
- 10SM
11:54
Overcast
54°F / 12°C 50°F / 10°C 88% 30.06 in
(1018 mb)
NNW 9.2 mph
(NNW 15 kph)
- 10SM
11:51
Overcast
Fog And Mist
54°F / 12°C 50°F / 10°C 88% 30.06 in
(1018 mb)
NNW 13.8 mph
(NNW 22 kph)
- 4SM
10:51
Overcast
Fog And Mist
70°F / 21°C 64°F / 18°C 83% 30.01 in
(1016 mb)
NW 23 mph
(NW 37 kph)
0.07 in
(1.78 mm)
4SM
10:44
Overcast
Rain
70°F / 21°C 66°F / 19°C 88% 30.01 in
(1016 mb)
NW 16.1 mph
(NW 26 kph)
0.07 in
(1.78 mm)
4SM
10:36
Overcast
Heavy Rain
70°F / 21°C 66°F / 19°C 88% 29.98 in
(1015 mb)
SSW 9.2 mph
(SSW 15 kph)
0.03 in
(0.76 mm)
1 3/4SM
09:58
Overcast
Light Rain
70°F / 21°C 66°F / 19°C 88% 29.98 in
(1015 mb)
SW 11.5 mph
(SW 19 kph)
0.00 in
(0.00 mm)
8SM
09:51
Overcast
Light Rain
70°F / 21°C 66°F / 19°C 88% 29.98 in
(1015 mb)
SW 11.5 mph
(SW 19 kph)
0.00 in
(0.00 mm)
7SM
09:30
Overcast
70°F / 21°C 66°F / 19°C 88% 29.98 in
(1015 mb)
SW 9.2 mph
(SW 15 kph)
0.00 in
(0.00 mm)
9SM
09:23
Overcast
70°F / 21°C 66°F / 19°C 88% 29.98 in
(1015 mb)
SW 9.2 mph
(SW 15 kph)
0.00 in
(0.00 mm)
9SM
08:51
Overcast
Light Rain
66°F / 19°C 64°F / 18°C 94% 29.95 in
(1014 mb)
SW 6.9 mph
(SW 11 kph)
0.01 in
(0.25 mm)
9SM
07:51
Overcast
66°F / 19°C 63°F / 17°C 88% 29.95 in
(1014 mb)
Variable 5.8 mph
(Variable 9 kph)
0.00 in
(0.00 mm)
10SM
07:29
Overcast
Light Rain
66°F / 19°C 63°F / 17°C 88% 29.95 in
(1014 mb)
SW 6.9 mph
(SW 11 kph)
0.00 in
(0.00 mm)
10SM
06:51
Overcast
Light Rain
66°F / 19°C 64°F / 18°C 94% 29.92 in
(1013 mb)
SW 5.8 mph
(SW 9 kph)
0.12 in
(3.05 mm)
7SM
06:29
Overcast
Light Rain
66°F / 19°C 64°F / 18°C 94% 29.92 in
(1013 mb)
SSW 6.9 mph
(SSW 11 kph)
0.11 in
(2.79 mm)
10SM
06:23
Overcast
Light Rain
66°F / 19°C 64°F / 18°C 94% 29.92 in
(1013 mb)
SSW 6.9 mph
(SSW 11 kph)
0.11 in
(2.79 mm)
9SM
06:14
Overcast
Rain
66°F / 19°C 64°F / 18°C 94% 29.92 in
(1013 mb)
SSW 5.8 mph
(SSW 9 kph)
0.11 in
(2.79 mm)
2SM
06:02
Overcast
Heavy Rain
66°F / 19°C 64°F / 18°C 94% 29.92 in
(1013 mb)
SSW 4.6 mph
(SSW 7 kph)
0.04 in
(1.02 mm)
2 1/2SM
05:51
Overcast
Light Rain
66°F / 19°C 64°F / 18°C 94% 29.92 in
(1013 mb)
SW 4.6 mph
(SW 7 kph)
0.09 in
(2.29 mm)
6SM
05:15
Overcast
Light Rain
64°F / 18°C 64°F / 18°C 100% 29.92 in
(1013 mb)
SW 10.4 mph
(SW 17 kph)
0.06 in
(1.52 mm)
6SM
05:06
Overcast
Light Rain
64°F / 18°C 63°F / 17°C 94% 29.92 in
(1013 mb)
SW 8.1 mph
(SW 13 kph)
0.05 in
(1.27 mm)
2 1/2SM
04:51
Overcast
Light Rain
64°F / 18°C 63°F / 17°C 94% 29.92 in
(1013 mb)
S 8.1 mph
(S 13 kph)
0.16 in
(4.06 mm)
10SM
04:26
Overcast
Light Rain
66°F / 19°C 63°F / 17°C 88% 29.92 in
(1013 mb)
SW 9.2 mph
(SW 15 kph)
0.15 in
(3.81 mm)
7SM
04:19
Overcast
Light Rain
66°F / 19°C 64°F / 18°C 94% 29.92 in
(1013 mb)
SSW 13.8 mph
(SSW 22 kph)
0.15 in
(3.81 mm)
3SM
04:10
Overcast
Heavy Rain
66°F / 19°C 64°F / 18°C 94% 29.92 in
(1013 mb)
W 10.4 mph
(W 17 kph)
0.08 in
(2.03 mm)
1 3/4SM
04:07
Overcast
Light Rain
68°F / 20°C 64°F / 18°C 88% 29.92 in
(1013 mb)
SSW 12.7 mph
(SSW 20 kph)
0.02 in
(0.51 mm)
2 1/2SM
04:04
Overcast
Light Rain
68°F / 20°C 64°F / 18°C 88% 29.92 in
(1013 mb)
SW 12.7 mph
(SW 20 kph)
0.01 in
(0.25 mm)
3SM
03:59
Overcast
Light Rain
68°F / 20°C 64°F / 18°C 88% 29.92 in
(1013 mb)
SW 10.4 mph
(SW 17 kph)
0.01 in
(0.25 mm)
4SM
03:51
Overcast
Light Rain
68°F / 20°C 64°F / 18°C 88% 29.92 in
(1013 mb)
SW 10.4 mph
(SW 17 kph)
0.00 in
(0.00 mm)
8SM
02:51
Overcast
68°F / 20°C 64°F / 18°C 88% 29.92 in
(1013 mb)
SSE 10.4 mph
(SSE 17 kph)
- 10SM
02:24
Overcast
68°F / 20°C 64°F / 18°C 88% 29.95 in
(1014 mb)
SSE 5.8 mph
(SSE 9 kph)
- 10SM
01:51
Overcast
68°F / 20°C 64°F / 18°C 88% 29.95 in
(1014 mb)
SW 8.1 mph
(SW 13 kph)
- 10SM
00:51
Overcast
68°F / 20°C 64°F / 18°C 88% 29.95 in
(1014 mb)
SW 6.9 mph
(SW 11 kph)
- 10SM
00:20
Overcast
68°F / 20°C 64°F / 18°C 88% 29.95 in
(1014 mb)
SW 8.1 mph
(SW 13 kph)
- 10SM
00:07
Mostly Cloudy
68°F / 20°C 64°F / 18°C 88% 29.98 in
(1015 mb)
SW 6.9 mph
(SW 11 kph)
- 10SM
Time Weather Temperature Dewpoint Humidity Pressure Winds Precip Visibility


Weather for websites

WeatherForYou.com, LLC is not responsible for any damages or problems caused by this service. Current weather conditions are obtained from the closest station including government and personal stations which may have varying degrees of accuracy. Weather forecasts are derived from the NOAA NDFD. Like all things, this site belongs to Jesus Christ... He just trusts me to maintain it. If you have any questions or comments email webmaster@weatherforyou.com

Copyright © 2015, WeatherForYou.com LLC. All rights reserved.